QPF
0.02 0.03 0.06 0.10 0.19 0.23 0.22 0.25 0.33 0.34 0.32 0.27 0.21 0.19 0.19 0.16 0.11 0.05 0.08 0.09 0.05 0.03 0.02 0.01 0.00 0.00 0.01 0.01 0.01 0.01 0.02 0.02 0.02 0.03 0.06 0.06 0.05 0.06 0.06 0.07 0.06 0.04 0.04
0.03 0.03 0.05 0.07 0.13 0.20 0.23 0.19 0.21 0.24 0.23 0.23 0.20 0.18 0.17 0.16 0.11 0.08 0.08 0.08 0.06 0.04 0.03 0.02 0.01 0.00 0.01 0.01 0.01 0.01 0.01 0.01 0.01 0.01 0.02 0.03 0.05 0.06 0.05 0.04 0.03 0.03 0.03
0.02 0.02 0.03 0.05 0.06 0.13 0.19 0.15 0.15 0.16 0.18 0.20 0.22 0.22 0.22 0.19 0.14 0.09 0.07 0.05 0.05 0.04 0.03 0.01 0.01 0.01 0.00 0.00 0.00 0.01 0.01 0.01 0.00 0.00 0.00 0.01 0.02 0.03 0.05 0.04 0.03 0.03 0.04
0.02 0.03 0.03 0.03 0.05 0.09 0.18 0.19 0.17 0.15 0.16 0.17 0.19 0.20 0.19 0.13 0.09 0.07 0.06 0.05 0.04 0.04 0.03 0.02 0.01 0.01 0.00 0.00 0.00 0.00 0.00 0.00 0.00 0.00 0.00 0.00 0.00 0.01 0.03 0.03 0.03 0.02 0.03
0.02 0.02 0.03 0.04 0.06 0.10 0.16 0.20 0.18 0.18 0.17 0.15 0.16 0.17 0.18 0.14 0.11 0.09 0.08 0.06 0.05 0.04 0.03 0.03 0.03 0.02 0.01 0.00 0.00 0.00 0.00 0.00 0.00 0.00 0.00 0.00 0.00 0.00 0.01 0.01 0.02 0.02 0.01
0.01 0.01 0.02 0.04 0.06 0.08 0.11 0.15 0.15 0.18 0.18 0.15 0.15 0.14 0.13 0.12 0.11 0.08 0.06 0.05 0.05 0.05 0.05 0.04 0.03 0.02 0.02 0.01 0.01 0.00 0.00 0.01 0.01 0.00 0.00 0.00 0.00 0.00 0.02 0.02 0.01 0.01 0.01
0.02 0.01 0.02 0.02 0.04 0.04 0.05 0.07 0.12 0.15 0.16 0.15 0.13 0.11 0.09 0.09 0.08 0.07 0.04 0.03 0.03 0.03 0.05 0.04 0.03 0.02 0.01 0.01 0.01 0.01 0.01 0.00 0.01 0.00 0.01 0.00 0.00 0.00 0.01 0.02 0.01 0.00 0.00
0.03 0.02 0.01 0.02 0.02 0.02 0.04 0.05 0.07 0.11 0.13 0.14 0.11 0.10 0.09 0.08 0.06 0.06 0.05 0.02 0.02 0.02 0.04 0.04 0.03 0.02 0.02 0.01 0.01 0.01 0.00 0.00 0.00 0.00 0.00 0.01 0.00 0.00 0.01 0.01 0.01 0.01 0.01
0.06 0.02 0.02 0.02 0.02 0.03 0.03 0.03 0.05 0.08 0.10 0.09 0.08 0.10 0.11 0.08 0.06 0.06 0.06 0.04 0.03 0.03 0.03 0.05 0.05 0.04 0.04 0.03 0.02 0.01 0.01 0.01 0.00 0.00 0.01 0.00 0.00 0.00 0.01 0.01 0.01 0.01 0.01
0.05 0.04 0.05 0.03 0.02 0.03 0.04 0.04 0.05 0.09 0.10 0.09 0.07 0.07 0.11 0.11 0.10 0.09 0.09 0.07 0.06 0.05 0.05 0.09 0.08 0.06 0.07 0.06 0.05 0.04 0.03 0.03 0.01 0.01 0.01 0.01 0.00 0.00 0.01 0.01 0.01 0.01 0.01
0.03 0.04 0.05 0.03 0.02 0.03 0.04 0.03 0.05 0.09 0.12 0.11 0.09 0.07 0.07 0.08 0.10 0.12 0.13 0.11 0.10 0.09 0.09 0.08 0.07 0.06 0.05 0.05 0.05 0.05 0.04 0.03 0.03 0.02 0.02 0.01 0.01 0.01 0.01 0.02 0.02 0.02 0.01
0.03 0.04 0.04 0.03 0.02 0.03 0.03 0.02 0.02 0.04 0.05 0.07 0.08 0.07 0.06 0.07 0.07 0.08 0.12 0.12 0.13 0.15 0.15 0.11 0.09 0.08 0.06 0.06 0.06 0.04 0.03 0.04 0.04 0.03 0.02 0.01 0.01 0.01 0.02 0.01 0.01 0.01 0.01
0.06 0.05 0.05 0.04 0.03 0.02 0.02 0.02 0.02 0.03 0.05 0.06 0.07 0.08 0.07 0.08 0.08 0.08 0.09 0.10 0.11 0.13 0.17 0.14 0.12 0.11 0.09 0.08 0.07 0.06 0.06 0.05 0.05 0.04 0.04 0.03 0.03 0.03 0.03 0.04 0.03 0.02 0.01
0.07 0.06 0.07 0.06 0.04 0.02 0.02 0.02 0.02 0.03 0.05 0.08 0.09 0.07 0.07 0.07 0.08 0.10 0.12 0.11 0.11 0.13 0.17 0.18 0.14 0.13 0.13 0.11 0.10 0.09 0.09 0.09 0.10 0.07 0.05 0.04 0.04 0.03 0.03 0.03 0.03 0.03 0.03
0.07 0.10 0.15 0.13 0.09 0.05 0.04 0.03 0.02 0.04 0.06 0.08 0.08 0.07 0.09 0.09 0.11 0.15 0.17 0.17 0.20 0.20 0.19 0.20 0.18 0.17 0.15 0.12 0.12 0.13 0.13 0.12 0.09 0.07 0.04 0.03 0.03 0.02 0.02 0.02 0.02 0.02 0.02
0.07 0.10 0.16 0.19 0.16 0.11 0.07 0.06 0.06 0.07 0.09 0.09 0.09 0.11 0.14 0.16 0.16 0.19 0.21 0.20 0.20 0.19 0.18 0.20 0.21 0.19 0.17 0.17 0.19 0.17 0.14 0.10 0.08 0.06 0.03 0.02 0.01 0.01 0.01 0.01 0.02 0.01 0.01
0.16 0.15 0.17 0.23 0.23 0.17 0.11 0.10 0.08 0.08 0.10 0.12 0.12 0.12 0.13 0.13 0.14 0.15 0.17 0.16 0.14 0.11 0.08 0.10 0.14 0.15 0.14 0.13 0.12 0.09 0.09 0.07 0.04 0.03 0.02 0.01 0.01 0.00 0.00 0.00 0.00 0.00 0.00
0.16 0.19 0.24 0.24 0.21 0.16 0.12 0.09 0.10 0.10 0.11 0.12 0.12 0.13 0.13 0.13 0.14 0.16 0.14 0.14 0.12 0.09 0.07 0.08 0.09 0.08 0.06 0.04 0.03 0.03 0.03 0.02 0.02 0.01 0.01 0.01 0.00 0.00 0.00 0.00 0.00 0.00 0.00
0.18 0.23 0.24 0.20 0.17 0.15 0.14 0.13 0.12 0.13 0.14 0.13 0.14 0.13 0.13 0.14 0.16 0.16 0.13 0.12 0.11 0.08 0.06 0.05 0.04 0.03 0.02 0.02 0.02 0.01 0.02 0.01 0.01 0.01 0.00 0.00 0.00 0.01 0.01 0.00 0.00 0.00 0.00
0.11 0.20 0.28 0.23 0.19 0.16 0.14 0.15 0.13 0.13 0.12 0.12 0.13 0.13 0.14 0.15 0.14 0.14 0.12 0.10 0.08 0.06 0.05 0.04 0.02 0.01 0.01 0.01 0.01 0.01 0.01 0.01 0.01 0.01 0.01 0.01 0.00 0.00 0.00 0.00 0.00 0.00 0.00
0.11 0.16 0.24 0.29 0.23 0.20 0.19 0.18 0.16 0.13 0.11 0.12 0.12 0.13 0.13 0.12 0.11 0.11 0.10 0.07 0.05 0.04 0.03 0.03 0.02 0.01 0.01 0.01 0.01 0.00 0.01 0.01 0.01 0.00 0.00 0.00 0.00 0.00 0.00 0.00 0.00 0.00 0.00
0.05 0.10 0.16 0.22 0.26 0.27 0.25 0.21 0.18 0.18 0.15 0.14 0.13 0.12 0.13 0.12 0.11 0.09 0.07 0.06 0.05 0.05 0.03 0.02 0.02 0.02 0.02 0.01 0.01 0.00 0.00 0.00 0.00 0.00 0.00 0.00 0.00 0.00 0.00 0.00 0.00 0.00 0.00
0.03 0.04 0.07 0.12 0.16 0.23 0.26 0.23 0.20 0.20 0.19 0.17 0.15 0.12 0.10 0.11 0.11 0.09 0.07 0.06 0.05 0.04 0.04 0.03 0.02 0.01 0.01 0.01 0.00 0.00 0.00 0.00 0.00 0.00 0.00 0.00 0.00 0.00 0.00 0.00 0.00 0.00 0.00
0.04 0.05 0.07 0.08 0.10 0.13 0.17 0.19 0.18 0.19 0.19 0.18 0.16 0.14 0.12 0.11 0.10 0.09 0.09 0.07 0.06 0.04 0.03 0.02 0.01 0.00 0.00 0.00 0.00 0.00 0.00 0.00 0.00 0.00 0.00 0.00 0.00 0.00 0.00 0.00 0.00 0.00 0.00
0.07 0.08 0.08 0.08 0.09 0.12 0.13 0.17 0.17 0.14 0.13 0.14 0.13 0.12 0.11 0.09 0.08 0.06 0.05 0.04 0.03 0.02 0.01 0.01 0.01 0.00 0.00 0.00 0.00 0.00 0.00 0.00 0.00 0.00 0.00 0.00 0.00 0.00 0.00 0.00 0.00 0.00 0.00
0.09 0.10 0.10 0.09 0.08 0.10 0.11 0.14 0.19 0.20 0.17 0.14 0.12 0.10 0.08 0.07 0.05 0.04 0.03 0.02 0.01 0.01 0.01 0.00 0.00 0.00 0.00 0.00 0.00 0.00 0.00 0.00 0.00 0.00 0.00 0.00 0.00 0.00 0.00 0.00 0.00 0.00 0.00
MSLP
1007.35 1007.63 1007.87 1008.05 1008.18 1008.30 1008.45 1008.68 1009.03 1009.53 1010.15 1010.87 1011.61 1012.32 1012.95 1013.46 1013.84 1014.11 1014.31 1014.49 1014.68 1014.94 1015.25 1015.63 1016.04 1016.46 1016.85 1017.19 1017.48 1017.71 1017.91 1018.09 1018.27 1018.46 1018.65 1018.82 1018.97 1019.06 1019.09 1019.05 1018.97 1018.86 1018.77
1007.40 1007.70 1007.94 1008.10 1008.19 1008.26 1008.37 1008.58 1008.94 1009.48 1010.17 1010.98 1011.81 1012.60 1013.28 1013.80 1014.15 1014.36 1014.49 1014.58 1014.71 1014.91 1015.20 1015.58 1016.00 1016.44 1016.84 1017.19 1017.48 1017.70 1017.89 1018.06 1018.24 1018.43 1018.64 1018.85 1019.02 1019.14 1019.19 1019.15 1019.05 1018.90 1018.75
1007.46 1007.77 1008.03 1008.19 1008.27 1008.32 1008.40 1008.59 1008.95 1009.52 1010.26 1011.13 1012.03 1012.88 1013.60 1014.13 1014.47 1014.65 1014.71 1014.75 1014.82 1014.96 1015.22 1015.57 1015.98 1016.41 1016.82 1017.17 1017.46 1017.68 1017.86 1018.03 1018.23 1018.45 1018.69 1018.93 1019.14 1019.30 1019.36 1019.33 1019.22 1019.04 1018.83
1007.54 1007.88 1008.16 1008.34 1008.43 1008.46 1008.52 1008.68 1009.03 1009.59 1010.35 1011.23 1012.17 1013.06 1013.81 1014.36 1014.71 1014.87 1014.91 1014.90 1014.93 1015.04 1015.25 1015.57 1015.96 1016.38 1016.78 1017.13 1017.41 1017.64 1017.83 1018.02 1018.24 1018.49 1018.77 1019.05 1019.30 1019.49 1019.58 1019.56 1019.43 1019.23 1018.98
1007.70 1008.06 1008.37 1008.57 1008.66 1008.68 1008.71 1008.84 1009.14 1009.66 1010.37 1011.24 1012.17 1013.06 1013.82 1014.40 1014.76 1014.94 1014.99 1014.99 1015.00 1015.08 1015.27 1015.57 1015.93 1016.32 1016.70 1017.04 1017.33 1017.57 1017.78 1018.01 1018.26 1018.54 1018.85 1019.17 1019.45 1019.66 1019.76 1019.75 1019.62 1019.39 1019.10
1007.93 1008.31 1008.64 1008.87 1008.97 1008.98 1008.97 1009.03 1009.26 1009.68 1010.31 1011.11 1011.99 1012.85 1013.62 1014.21 1014.62 1014.84 1014.93 1014.96 1014.99 1015.08 1015.26 1015.53 1015.86 1016.23 1016.59 1016.92 1017.21 1017.46 1017.70 1017.95 1018.23 1018.54 1018.88 1019.21 1019.51 1019.73 1019.83 1019.82 1019.69 1019.46 1019.15
1008.23 1008.62 1008.98 1009.22 1009.33 1009.32 1009.26 1009.25 1009.37 1009.68 1010.19 1010.87 1011.66 1012.47 1013.22 1013.83 1014.28 1014.57 1014.73 1014.82 1014.91 1015.03 1015.21 1015.47 1015.78 1016.12 1016.45 1016.76 1017.05 1017.31 1017.56 1017.83 1018.13 1018.46 1018.80 1019.13 1019.42 1019.64 1019.74 1019.73 1019.60 1019.38 1019.08
1008.54 1008.94 1009.32 1009.59 1009.70 1009.67 1009.57 1009.48 1009.49 1009.66 1010.03 1010.58 1011.26 1011.99 1012.70 1013.33 1013.82 1014.19 1014.45 1014.63 1014.79 1014.96 1015.16 1015.41 1015.70 1016.00 1016.30 1016.58 1016.85 1017.10 1017.36 1017.63 1017.93 1018.26 1018.59 1018.91 1019.18 1019.37 1019.47 1019.46 1019.35 1019.15 1018.89
1008.81 1009.22 1009.62 1009.90 1010.03 1010.00 1009.87 1009.71 1009.63 1009.68 1009.91 1010.33 1010.88 1011.53 1012.20 1012.82 1013.37 1013.81 1014.16 1014.44 1014.68 1014.90 1015.14 1015.39 1015.65 1015.91 1016.17 1016.41 1016.64 1016.87 1017.11 1017.37 1017.66 1017.96 1018.27 1018.56 1018.80 1018.98 1019.06 1019.06 1018.98 1018.82 1018.62
1008.98 1009.39 1009.81 1010.11 1010.26 1010.25 1010.12 1009.94 1009.80 1009.77 1009.90 1010.19 1010.64 1011.20 1011.81 1012.43 1013.00 1013.51 1013.95 1014.32 1014.64 1014.92 1015.19 1015.44 1015.67 1015.89 1016.10 1016.29 1016.47 1016.66 1016.87 1017.10 1017.36 1017.63 1017.91 1018.16 1018.37 1018.53 1018.61 1018.62 1018.58 1018.48 1018.34
1009.00 1009.42 1009.85 1010.18 1010.37 1010.40 1010.32 1010.16 1010.02 1009.95 1010.02 1010.24 1010.60 1011.08 1011.64 1012.24 1012.82 1013.38 1013.88 1014.32 1014.71 1015.05 1015.34 1015.59 1015.80 1015.98 1016.12 1016.26 1016.39 1016.53 1016.69 1016.89 1017.11 1017.35 1017.59 1017.81 1018.00 1018.14 1018.22 1018.26 1018.25 1018.21 1018.15
1008.90 1009.31 1009.73 1010.09 1010.33 1010.44 1010.44 1010.36 1010.27 1010.23 1010.29 1010.47 1010.78 1011.20 1011.71 1012.27 1012.85 1013.42 1013.96 1014.45 1014.89 1015.28 1015.59 1015.85 1016.04 1016.18 1016.28 1016.36 1016.43 1016.53 1016.65 1016.80 1016.99 1017.20 1017.41 1017.61 1017.78 1017.91 1018.00 1018.05 1018.08 1018.10 1018.10
1008.69 1009.07 1009.48 1009.86 1010.16 1010.36 1010.47 1010.51 1010.53 1010.57 1010.67 1010.86 1011.14 1011.52 1011.97 1012.49 1013.04 1013.61 1014.17 1014.70 1015.18 1015.60 1015.94 1016.20 1016.39 1016.51 1016.57 1016.61 1016.64 1016.69 1016.78 1016.90 1017.06 1017.25 1017.44 1017.62 1017.78 1017.91 1018.00 1018.07 1018.12 1018.17 1018.22
1008.43 1008.75 1009.13 1009.51 1009.87 1010.17 1010.41 1010.60 1010.76 1010.91 1011.09 1011.32 1011.60 1011.94 1012.35 1012.82 1013.34 1013.89 1014.46 1015.01 1015.52 1015.98 1016.36 1016.65 1016.84 1016.96 1017.01 1017.02 1017.02 1017.04 1017.10 1017.20 1017.34 1017.52 1017.70 1017.87 1018.03 1018.15 1018.24 1018.31 1018.37 1018.42 1018.49
1008.15 1008.39 1008.71 1009.09 1009.48 1009.87 1010.24 1010.58 1010.90 1011.18 1011.46 1011.74 1012.04 1012.38 1012.75 1013.18 1013.67 1014.20 1014.77 1015.34 1015.89 1016.39 1016.82 1017.15 1017.38 1017.51 1017.56 1017.57 1017.56 1017.57 1017.61 1017.70 1017.83 1017.99 1018.17 1018.34 1018.49 1018.61 1018.69 1018.74 1018.79 1018.83 1018.87
1007.88 1008.02 1008.27 1008.61 1009.03 1009.49 1009.97 1010.45 1010.90 1011.32 1011.71 1012.06 1012.39 1012.73 1013.09 1013.49 1013.96 1014.48 1015.06 1015.66 1016.26 1016.82 1017.31 1017.70 1017.98 1018.14 1018.22 1018.25 1018.24 1018.24 1018.27 1018.35 1018.48 1018.64 1018.81 1018.98 1019.12 1019.22 1019.29 1019.32 1019.33 1019.32 1019.32
1007.62 1007.66 1007.82 1008.12 1008.53 1009.03 1009.60 1010.19 1010.77 1011.30 1011.78 1012.21 1012.59 1012.94 1013.31 1013.71 1014.18 1014.72 1015.32 1015.97 1016.63 1017.26 1017.83 1018.29 1018.63 1018.85 1018.97 1019.01 1019.02 1019.02 1019.05 1019.12 1019.23 1019.39 1019.55 1019.71 1019.85 1019.94 1019.97 1019.97 1019.93 1019.88 1019.82
1007.38 1007.31 1007.39 1007.63 1008.03 1008.56 1009.18 1009.84 1010.51 1011.14 1011.71 1012.20 1012.63 1013.03 1013.43 1013.86 1014.36 1014.94 1015.59 1016.30 1017.04 1017.75 1018.39 1018.92 1019.33 1019.61 1019.76 1019.83 1019.85 1019.85 1019.87 1019.94 1020.04 1020.18 1020.34 1020.49 1020.61 1020.68 1020.69 1020.65 1020.57 1020.46 1020.35
1007.14 1007.00 1007.02 1007.21 1007.59 1008.12 1008.76 1009.48 1010.21 1010.91 1011.54 1012.11 1012.60 1013.06 1013.52 1014.01 1014.56 1015.20 1015.92 1016.71 1017.51 1018.30 1019.01 1019.61 1020.07 1020.39 1020.58 1020.67 1020.69 1020.70 1020.71 1020.76 1020.85 1020.98 1021.12 1021.26 1021.36 1021.42 1021.41 1021.34 1021.22 1021.08 1020.91
1006.97 1006.78 1006.76 1006.93 1007.28 1007.81 1008.46 1009.20 1009.97 1010.72 1011.41 1012.04 1012.61 1013.14 1013.67 1014.23 1014.86 1015.57 1016.37 1017.22 1018.09 1018.93 1019.69 1020.34 1020.83 1021.18 1021.39 1021.48 1021.51 1021.51 1021.52 1021.55 1021.63 1021.74 1021.87 1021.99 1022.09 1022.13 1022.11 1022.02 1021.89 1021.72 1021.53
1006.90 1006.72 1006.70 1006.86 1007.21 1007.73 1008.38 1009.13 1009.92 1010.70 1011.44 1012.12 1012.76 1013.37 1013.98 1014.62 1015.33 1016.11 1016.96 1017.86 1018.76 1019.63 1020.42 1021.07 1021.58 1021.93 1022.14 1022.24 1022.27 1022.26 1022.26 1022.29 1022.36 1022.46 1022.57 1022.69 1022.77 1022.81 1022.79 1022.70 1022.56 1022.38 1022.18
1007.01 1006.88 1006.90 1007.08 1007.44 1007.97 1008.62 1009.36 1010.15 1010.95 1011.72 1012.45 1013.15 1013.83 1014.51 1015.22 1015.99 1016.82 1017.71 1018.62 1019.53 1020.38 1021.15 1021.78 1022.27 1022.61 1022.81 1022.91 1022.94 1022.93 1022.93 1022.96 1023.02 1023.11 1023.22 1023.33 1023.42 1023.46 1023.44 1023.36 1023.23 1023.06 1022.87
1007.38 1007.34 1007.42 1007.66 1008.05 1008.58 1009.23 1009.96 1010.74 1011.54 1012.32 1013.08 1013.82 1014.55 1015.28 1016.05 1016.85 1017.69 1018.57 1019.46 1020.32 1021.13 1021.84 1022.42 1022.87 1023.18 1023.37 1023.46 1023.49 1023.50 1023.51 1023.54 1023.61 1023.71 1023.82 1023.93 1024.01 1024.06 1024.05 1023.99 1023.88 1023.73 1023.54
1008.05 1008.12 1008.30 1008.60 1009.03 1009.57 1010.20 1010.92 1011.67 1012.45 1013.23 1013.99 1014.75 1015.50 1016.26 1017.03 1017.83 1018.65 1019.48 1020.31 1021.10 1021.82 1022.45 1022.96 1023.35 1023.63 1023.80 1023.90 1023.94 1023.97 1024.01 1024.06 1024.14 1024.24 1024.36 1024.47 1024.55 1024.60 1024.60 1024.55 1024.46 1024.33 1024.17
1009.03 1009.22 1009.50 1009.86 1010.32 1010.87 1011.49 1012.16 1012.88 1013.62 1014.36 1015.11 1015.85 1016.59 1017.34 1018.09 1018.85 1019.62 1020.38 1021.11 1021.80 1022.42 1022.95 1023.39 1023.72 1023.96 1024.13 1024.23 1024.31 1024.37 1024.43 1024.52 1024.62 1024.73 1024.84 1024.95 1025.03 1025.07 1025.08 1025.04 1024.96 1024.85 1024.70
1010.25 1010.55 1010.92 1011.34 1011.82 1012.36 1012.94 1013.57 1014.22 1014.90 1015.60 1016.30 1017.00 1017.71 1018.42 1019.12 1019.83 1020.52 1021.18 1021.82 1022.40 1022.91 1023.35 1023.72 1024.00 1024.22 1024.39 1024.51 1024.62 1024.72 1024.82 1024.93 1025.05 1025.17 1025.28 1025.37 1025.43 1025.47 1025.46 1025.43 1025.36 1025.26 1025.12
Thickness
5781 5778 5773 5768 5762 5758 5755 5753 5749 5749 5747 5744 5743 5741 5740 5742 5744 5746 5746 5746 5746 5745 5745 5744 5742 5742 5740 5739 5738 5736 5734 5732 5731 5727 5723 5724 5727 5726 5726 5726 5725 5724 5723
5777 5774 5770 5766 5761 5756 5753 5751 5748 5747 5747 5746 5744 5743 5740 5740 5741 5743 5744 5744 5744 5744 5743 5742 5741 5741 5739 5737 5737 5735 5732 5731 5731 5726 5719 5715 5718 5723 5728 5727 5726 5726 5725
5776 5773 5769 5764 5760 5755 5753 5752 5749 5748 5747 5745 5742 5739 5737 5736 5735 5737 5739 5741 5742 5742 5741 5741 5740 5739 5738 5736 5735 5735 5732 5729 5730 5730 5724 5715 5711 5717 5724 5727 5727 5727 5726
5777 5772 5768 5763 5760 5757 5755 5753 5749 5747 5746 5745 5740 5736 5734 5731 5733 5735 5736 5738 5740 5740 5740 5739 5739 5738 5737 5735 5735 5734 5733 5731 5727 5728 5729 5727 5724 5717 5716 5722 5726 5727 5727
5776 5772 5769 5765 5761 5758 5755 5752 5748 5745 5745 5743 5740 5737 5734 5733 5733 5734 5734 5735 5737 5738 5738 5738 5737 5736 5735 5734 5734 5733 5732 5731 5728 5726 5726 5725 5724 5722 5717 5714 5720 5724 5727
5774 5772 5769 5764 5759 5756 5754 5750 5746 5744 5743 5741 5739 5737 5734 5733 5731 5730 5730 5731 5733 5734 5735 5736 5735 5734 5733 5732 5732 5731 5730 5729 5728 5726 5725 5723 5721 5719 5717 5714 5715 5717 5723
5772 5768 5765 5761 5758 5755 5753 5749 5745 5742 5741 5740 5739 5737 5736 5733 5731 5730 5730 5729 5729 5730 5732 5733 5732 5732 5731 5730 5730 5729 5728 5727 5726 5724 5723 5723 5722 5722 5719 5716 5713 5714 5718
5771 5768 5766 5762 5758 5755 5752 5749 5745 5742 5741 5739 5738 5737 5736 5733 5731 5731 5730 5729 5729 5730 5731 5730 5730 5729 5729 5728 5727 5726 5725 5725 5723 5722 5721 5720 5720 5720 5719 5716 5712 5708 5709
5768 5766 5766 5763 5759 5756 5753 5750 5747 5742 5741 5739 5738 5735 5734 5732 5731 5731 5730 5729 5729 5729 5728 5728 5727 5726 5726 5725 5724 5722 5721 5721 5719 5718 5717 5716 5716 5716 5716 5715 5712 5706 5700
5767 5766 5765 5762 5759 5757 5754 5750 5747 5743 5741 5738 5737 5735 5733 5732 5731 5729 5727 5727 5727 5727 5725 5724 5723 5723 5722 5721 5719 5718 5717 5716 5715 5714 5713 5711 5711 5711 5710 5710 5708 5706 5701
5766 5765 5763 5761 5759 5755 5752 5749 5745 5742 5739 5737 5735 5733 5732 5731 5729 5727 5725 5724 5724 5723 5721 5720 5719 5718 5717 5716 5714 5713 5712 5711 5709 5709 5707 5706 5705 5704 5703 5703 5701 5699 5697
5767 5765 5762 5759 5756 5753 5749 5746 5744 5741 5739 5736 5734 5732 5731 5729 5726 5724 5723 5722 5720 5719 5717 5716 5714 5714 5712 5711 5709 5707 5706 5705 5703 5701 5700 5698 5698 5696 5695 5694 5692 5691 5690
5765 5763 5760 5757 5754 5752 5748 5744 5743 5741 5738 5735 5732 5729 5728 5726 5724 5722 5720 5718 5717 5715 5713 5711 5709 5708 5706 5705 5704 5702 5700 5697 5696 5694 5691 5690 5689 5687 5685 5684 5683 5682 5682
5762 5760 5757 5755 5753 5751 5747 5744 5741 5740 5737 5734 5730 5727 5725 5724 5722 5719 5717 5715 5713 5710 5707 5705 5703 5701 5700 5698 5696 5695 5692 5689 5687 5685 5683 5681 5679 5678 5677 5675 5673 5672 5670
5758 5757 5756 5753 5750 5748 5746 5744 5741 5738 5736 5732 5728 5725 5724 5722 5719 5715 5713 5710 5708 5705 5702 5699 5696 5695 5693 5691 5689 5687 5684 5680 5677 5675 5673 5671 5670 5669 5668 5666 5663 5662 5659
5755 5755 5754 5752 5748 5746 5744 5741 5739 5737 5734 5730 5726 5724 5720 5718 5714 5711 5707 5704 5700 5697 5694 5690 5688 5686 5685 5683 5682 5680 5675 5672 5668 5664 5662 5660 5658 5657 5657 5655 5653 5651 5648
5751 5750 5749 5748 5746 5744 5742 5738 5737 5735 5731 5727 5723 5720 5717 5713 5709 5706 5702 5697 5693 5689 5685 5681 5679 5675 5674 5674 5673 5670 5666 5662 5658 5654 5651 5649 5646 5645 5643 5642 5640 5638 5635
5745 5745 5744 5743 5741 5739 5737 5736 5734 5731 5727 5723 5719 5716 5712 5708 5704 5699 5693 5688 5684 5680 5675 5671 5668 5665 5663 5664 5662 5659 5655 5650 5646 5642 5638 5635 5632 5632 5629 5628 5624 5621 5619
5737 5737 5738 5737 5735 5733 5731 5729 5727 5724 5720 5717 5714 5711 5707 5702 5697 5691 5685 5680 5675 5669 5664 5660 5657 5654 5651 5650 5649 5647 5642 5637 5632 5629 5625 5623 5619 5618 5616 5613 5608 5605 5602
5728 5729 5729 5728 5727 5726 5726 5722 5719 5716 5713 5711 5708 5704 5700 5695 5689 5683 5677 5671 5665 5659 5654 5648 5644 5641 5638 5637 5636 5634 5630 5623 5618 5614 5611 5610 5607 5604 5601 5597 5592 5587 5584
5717 5719 5719 5717 5717 5718 5717 5713 5709 5706 5704 5702 5698 5694 5689 5685 5680 5674 5667 5662 5655 5649 5642 5636 5630 5628 5625 5623 5622 5620 5616 5611 5606 5602 5598 5595 5593 5591 5587 5583 5577 5573 5569
5705 5707 5707 5706 5706 5706 5705 5703 5698 5695 5693 5689 5685 5680 5676 5673 5668 5662 5656 5650 5644 5637 5630 5624 5617 5613 5610 5608 5606 5604 5601 5598 5593 5588 5584 5582 5580 5576 5572 5567 5563 5558 5553
5693 5694 5695 5694 5693 5693 5694 5691 5686 5684 5681 5676 5670 5665 5661 5657 5653 5649 5644 5638 5632 5626 5619 5612 5604 5598 5595 5592 5591 5588 5586 5583 5579 5575 5572 5569 5565 5560 5554 5550 5544 5538 5532
5681 5682 5682 5681 5679 5679 5679 5678 5674 5672 5669 5662 5656 5651 5647 5641 5636 5633 5629 5625 5619 5613 5607 5599 5592 5586 5583 5579 5577 5574 5571 5568 5565 5560 5557 5553 5547 5541 5535 5529 5523 5517 5510
5668 5669 5668 5666 5665 5665 5664 5662 5660 5659 5654 5647 5641 5635 5629 5625 5619 5614 5610 5608 5604 5602 5596 5589 5583 5577 5571 5567 5565 5561 5557 5553 5549 5544 5539 5532 5526 5519 5512 5506 5500 5494 5489
5655 5654 5653 5652 5651 5650 5648 5646 5645 5644 5640 5633 5626 5620 5614 5611 5607 5602 5594 5591 5589 5586 5582 5578 5572 5566 5562 5557 5553 5549 5544 5540 5535 5528 5518 5510 5503 5496 5490 5483 5478 5473 5467